Montgomery, NY

6:30 AM EDT on October 19, 2019 (GMT -0400)
Orange County

Weather History for KMGJ - September, 2019

Change the Weather History Date:

Sunday, September 22, 2019

  Actual Average (KSWF) Record (KSWF)
Temperature  
Mean Temperature 67 °F -  
Max Temperature 87 °F 68 °F 87 °F (1978)
Min Temperature 48 °F 49 °F 32 °F (1973)
Cooling Degree Days 2    
Growing Degree Days 17 (Base 50)    
Moisture  
Dew Point 57 °F    
Average Humidity 82    
Maximum Humidity 100    
Minimum Humidity 49    
Precipitation  
Precipitation 0.00 in - - ()
Sea Level Pressure  
Sea Level Pressure 30.10 in    
Wind  
Wind Speed 2 mph (SSW)    
Max Wind Speed 12 mph    
Max Gust Speed -    
Visibility 9 miles    
Events Rain    
Averages and records for this station are not official NWS values.
T = Trace of Precipitation, MM = Missing Value Source: NWS Daily Summary

Daily Weather History Graph

Daily Weather History Graph

Search for Another Location

Airport or City:

Astronomy

Sep. 22, 2019 Rise Set
Actual Time 6:44 AM EDT 6:54 PM EDT
Civil Twilight 6:16 AM EDT 7:22 PM EDT
Nautical Twilight 5:44 AM EDT 7:54 PM EDT
Astronomical Twilight 5:11 AM EDT 8:27 PM EDT
Moon No Moon Rise 2:52 PM EDT (9/22)
Length of Visible Light 13h 05m
Length of Day
12h 10m
Last Quarter, 44% of the Moon is Illuminated
Sep 22
Last Quarter
Sep 28
New
Oct 5
First Quarter
Oct 13
Full
Oct 21
Last Quarter

Hourly Weather History & Observations

Time (EDT) Temp. Heat Index Dew Point Humidity Pressure Visibility Wind Dir Wind Speed Gust Speed Precip Events Conditions
12:54 AM 51.1 °F - 50.0 °F 96% 30.17 in 10.0 mi Calm Calm - N/A   Clear
1:54 AM 51.1 °F - 50.0 °F 96% 30.17 in 10.0 mi Calm Calm - N/A   Clear
2:54 AM 50.0 °F - 48.9 °F 96% 30.16 in 10.0 mi Calm Calm - N/A   Clear
3:54 AM 50.0 °F - 48.9 °F 96% 30.15 in 10.0 mi Calm Calm - N/A   Clear
4:54 AM 50.0 °F - 48.9 °F 96% 30.17 in 10.0 mi Calm Calm - N/A   Clear
5:54 AM 48.0 °F - 48.0 °F 100% 30.16 in 10.0 mi Calm Calm - 0.00 in Rain Light Rain
6:46 AM 48.0 °F - 46.9 °F 96% 30.17 in 5.0 mi Calm Calm - 0.00 in   Partly Cloudy
6:49 AM 48.2 °F - 48.2 °F 100% 30.17 in 1.2 mi Calm Calm - 0.00 in   Partly Cloudy
6:54 AM 48.0 °F - 48.0 °F 100% 30.17 in 1.2 mi Calm Calm - 0.00 in   Partly Cloudy
7:05 AM 48.0 °F - 46.9 °F 96% 30.17 in 4.0 mi Calm Calm - N/A   Mostly Cloudy
7:11 AM 48.0 °F - 48.0 °F 100% 30.17 in 2.5 mi Calm Calm - N/A   Scattered Clouds
7:22 AM 48.9 °F - 48.0 °F 97% 30.17 in 10.0 mi Calm Calm - N/A   Partly Cloudy
7:54 AM 53.1 °F - 53.1 °F 100% 30.17 in 10.0 mi Calm Calm - N/A   Clear
8:54 AM 60.1 °F - 57.0 °F 90% 30.17 in 10.0 mi SSW 4.6 mph - N/A   Clear
9:54 AM 68.0 °F - 59.0 °F 73% 30.16 in 10.0 mi SSW 5.8 mph - N/A   Clear
10:54 AM 73.9 °F - 60.1 °F 62% 30.14 in 10.0 mi South 4.6 mph - N/A   Clear
11:54 AM 79.0 °F - 60.1 °F 52% 30.12 in 10.0 mi SSW 4.6 mph - N/A   Clear
12:54 PM 82.9 °F 84.0 °F 63.0 °F 51% 30.09 in 10.0 mi SW 9.2 mph - N/A   Clear
1:54 PM 84.9 °F 86.1 °F 64.0 °F 49% 30.06 in 10.0 mi South 8.1 mph - N/A   Clear
2:54 PM 84.9 °F 86.1 °F 64.0 °F 49% 30.04 in 10.0 mi SW 6.9 mph - N/A   Partly Cloudy
3:54 PM 86.0 °F 87.6 °F 64.9 °F 49% 30.02 in 10.0 mi SW 11.5 mph - N/A   Scattered Clouds
4:54 PM 84.0 °F 85.4 °F 64.0 °F 51% 30.01 in 10.0 mi SW 10.4 mph - N/A   Clear
5:54 PM 82.0 °F 83.8 °F 64.9 °F 56% 30.00 in 10.0 mi SSW 9.2 mph - N/A   Scattered Clouds
6:54 PM 77.0 °F - 64.9 °F 66% 30.00 in 10.0 mi SSW 4.6 mph - N/A   Clear
7:54 PM 70.0 °F - 66.0 °F 87% 30.00 in 10.0 mi WSW 3.5 mph - N/A   Clear
8:54 PM 66.9 °F - 64.9 °F 93% 30.00 in 10.0 mi SW 3.5 mph - N/A   Clear
9:54 PM 66.0 °F - 64.0 °F 93% 30.00 in 10.0 mi SSW 3.5 mph - N/A   Clear
10:54 PM 66.0 °F - 64.0 °F 93% 29.99 in 10.0 mi SSW 3.5 mph - N/A   Clear
11:54 PM 66.0 °F - 64.0 °F 93% 29.97 in 10.0 mi Calm Calm - N/A   Clear